Location: Hamburg
(53.5554°N, 9.9941°E)
Time: 12:56:35
(UTC+01:00)

Tiangong 2 - Visible Passes

Search period start: 18 January 2018 00:00
Search period end: 28 January 2018 00:00
Orbit: 384 x 390 km, 42.8° (Epoch: 17 January)

Date Brightness Start Highest point End Pass type
(mag) Time Alt. Az. Time Alt. Az. Time Alt. Az.
19 Jan 4.2 07:15:57 10° S 07:16:32 10° SSE 07:17:06 10° SSE visible
21 Jan 3.9 06:54:18 10° SSW 06:55:34 12° S 06:56:51 10° SSE visible
22 Jan 4.0 05:56:29 10° S 05:57:09 10° SSE 05:57:48 10° SSE visible
22 Jan 3.9 07:31:43 10° SSW 07:33:04 12° S 07:34:25 10° SSE visible
23 Jan 3.8 06:33:10 10° SSW 06:34:37 12° S 06:36:04 10° SSE visible
24 Jan 4.0 05:36:48 11° SSE 05:36:48 11° SSE 05:37:26 10° SSE visible
24 Jan 3.9 07:11:16 10° SSW 07:12:04 11° SSW 07:12:53 10° S visible
25 Jan 3.7 06:13:02 12° SSW 06:13:37 12° S 06:14:56 10° SSE visible
27 Jan 3.9 05:53:14 10° S 05:53:14 10° S 05:53:17 10° S visible
